,,,PA_Meas_PMT16A,,PR_Meas_QMR101_102,,RH_Meas_QMH101,,SR_Meas_QMS101,,TA_Meas_QMH101,,GenWind,,GenWind,
date,time,status,PA,status,PR,status,RH,status,SR,status,TA,status,DirAvg,status,SpdAvg,
2009-10-30, 00:00:04,VALID,1003.03,VALID,0,VALID,93.4919,VALID,0,VALID,23.5089,VALID,347,VALID,0,
2009-10-30, 00:01:04,VALID,1003.03,VALID,0,VALID,93.4614,VALID,0,VALID,23.5071,VALID,347,VALID,0,
2009-10-30, 00:02:04,VALID,1003,VALID,0,VALID,93.4462,VALID,0,VALID,23.4877,VALID,347,VALID,0,
2009-10-30, 00:03:04,VALID,1002.96,VALID,0,VALID,93.4309,VALID,0,VALID,23.4682,VALID,347,VALID,0,
2009-10-30, 00:04:04,VALID,1002.99,VALID,0,VALID,93.4385,VALID,0,VALID,23.4487,VALID,347,VALID,0,
2009-10-30, 00:05:04,VALID,1002.97,VALID,0,VALID,93.4919,VALID,0,VALID,23.47,VALID,347,VALID,0,
2009-10-30, 00:06:04,VALID,1002.98,VALID,0,VALID,93.5072,VALID,0,VALID,23.4487,VALID,347,VALID,0,
2009-10-30, 00:07:04,VALID,1002.99,VALID,0,VALID,93.5377,VALID,0,VALID,23.47,VALID,347,VALID,0,
2009-10-30, 00:08:04,VALID,1003,VALID,0,VALID,93.553,VALID,0,VALID,23.4894,VALID,347,VALID,0,
2009-10-30, 00:09:04,VALID,1002.99,VALID,0,VALID,93.5301,VALID,0,VALID,23.47,VALID,347,VALID,0,
2009-10-30, 00:10:04,VALID,1003.02,VALID,0,VALID,93.5453,VALID,0,VALID,23.4487,VALID,347,VALID,0,
2009-10-30, 00:11:04,VALID,1003.02,VALID,0,VALID,93.5758,VALID,0,VALID,23.4487,VALID,347,VALID,0,
2009-10-30, 00:12:04,VALID,1003.03,VALID,0,VALID,93.4843,VALID,0,VALID,23.4505,VALID,347,VALID,0,
2009-10-30, 00:13:04,VALID,1003.04,VALID,0,VALID,93.4233,VALID,0,VALID,23.4293,VALID,347,VALID,0,
2009-10-30, 00:14:04,VALID,1003.03,VALID,0,VALID,93.4156,VALID,0,VALID,23.4293,VALID,347,VALID,0,
2009-10-30, 00:15:04,VALID,1003.05,VALID,0,VALID,93.4004,VALID,0,VALID,23.3904,VALID,347,VALID,0,
2009-10-30, 00:16:04,VALID,1003.03,VALID,0,VALID,93.4004,VALID,0,VALID,23.3904,VALID,347,VALID,0,
2009-10-30, 00:17:04,VALID,1003.06,VALID,0,VALID,93.4004,VALID,0,VALID,23.3727,VALID,347,VALID,0,
2009-10-30, 00:18:04,VALID,1003.04,VALID,0,VALID,93.4462,VALID,0,VALID,23.3727,VALID,347,VALID,0,
2009-10-30, 00:19:04,VALID,1003.04,VALID,0,VALID,93.5148,VALID,0,VALID,23.3727,VALID,347,VALID,0,
2009-10-30, 00:20:04,VALID,1003.05,VALID,0,VALID,93.5835,VALID,0,VALID,23.332,VALID,347,VALID,0,
2009-10-30, 00:21:04,VALID,1003.04,VALID,0,VALID,93.6369,VALID,0,VALID,23.332,VALID,347,VALID,0,
2009-10-30, 00:22:04,VALID,1003.03,VALID,0,VALID,93.675,VALID,0,VALID,23.332,VALID,347,VALID,0,
2009-10-30, 00:23:04,VALID,1003.03,VALID,0,VALID,93.7361,VALID,0,VALID,23.3125,VALID,347,VALID,0,
2009-10-30, 00:24:04,VALID,1003.04,VALID,0,VALID,93.8352,VALID,0,VALID,23.332,VALID,347,VALID,0,
2009-10-30, 00:25:04,VALID,1003.04,VALID,0,VALID,93.9268,VALID,0,VALID,23.3514,VALID,347,VALID,0,
2009-10-30, 00:26:04,VALID,1003.02,VALID,0,VALID,93.9878,VALID,0,VALID,23.3921,VALID,347,VALID,0,
2009-10-30, 00:27:04,VALID,1002.99,VALID,0,VALID,94.0183,VALID,0,VALID,23.3709,VALID,347,VALID,0,
2009-10-30, 00:28:04,VALID,1002.96,VALID,0,VALID,94.0183,VALID,0,VALID,23.3921,VALID,347,VALID,0,
2009-10-30, 00:29:04,VALID,1002.96,VALID,0,VALID,94.0565,VALID,0,VALID,23.3497,VALID,347,VALID,0,
2009-10-30, 00:30:04,VALID,1002.93,VALID,0,VALID,94.0565,VALID,0,VALID,23.3709,VALID,347,VALID,0,
2009-10-30, 00:31:04,VALID,1002.92,VALID,0,VALID,94.0259,VALID,0,VALID,23.3709,VALID,347,VALID,0,
2009-10-30, 00:32:04,VALID,1002.9,VALID,0,VALID,94.0336,VALID,0,VALID,23.3727,VALID,347,VALID,0,
2009-10-30, 00:33:04,VALID,1002.91,VALID,0,VALID,94.0336,VALID,0,VALID,23.332,VALID,347,VALID,0,
2009-10-30, 00:34:04,VALID,1002.89,VALID,0,VALID,94.0336,VALID,0,VALID,23.3727,VALID,347,VALID,0,
2009-10-30, 00:35:04,VALID,1002.86,VALID,0,VALID,94.0412,VALID,0,VALID,23.3727,VALID,347,VALID,0,
2009-10-30, 00:36:04,VALID,1002.9,VALID,0,VALID,94.0259,VALID,0,VALID,23.3337,VALID,347,VALID,0,
2009-10-30, 00:37:04,VALID,1002.87,VALID,0,VALID,94.0259,VALID,0,VALID,23.3125,VALID,347,VALID,0,
2009-10-30, 00:38:04,VALID,1002.88,VALID,0,VALID,94.0641,VALID,0,VALID,23.3125,VALID,347,VALID,0,
2009-10-30, 00:39:04,VALID,1002.88,VALID,0,VALID,94.1251,VALID,0,VALID,23.3125,VALID,347,VALID,0,
2009-10-30, 00:40:04,VALID,1002.85,VALID,0,VALID,94.1938,VALID,0,VALID,23.3727,VALID,347,VALID,0,
2009-10-30, 00:41:04,VALID,1002.87,VALID,0,VALID,94.1785,VALID,0,VALID,23.3727,VALID,347,VALID,0,
2009-10-30, 00:42:04,VALID,1002.84,VALID,0,VALID,94.1709,VALID,0,VALID,23.3514,VALID,347,VALID,0,
2009-10-30, 00:43:04,VALID,1002.83,VALID,0,VALID,94.1556,VALID,0,VALID,23.332,VALID,347,VALID,0,
2009-10-30, 00:44:04,VALID,1002.79,VALID,0,VALID,94.1175,VALID,0,VALID,23.3532,VALID,347,VALID,0,
2009-10-30, 00:45:04,VALID,1002.8,VALID,0,VALID,94.1328,VALID,0,VALID,23.3337,VALID,347,VALID,0,
2009-10-30, 00:46:04,VALID,1002.79,VALID,0,VALID,94.1251,VALID,0,VALID,23.3532,VALID,347,VALID,0,
2009-10-30, 00:47:04,VALID,1002.78,VALID,0,VALID,94.1328,VALID,0,VALID,23.3514,VALID,347,VALID,0,
2009-10-30, 00:48:04,VALID,1002.77,VALID,0,VALID,94.0946,VALID,0,VALID,23.3532,VALID,347,VALID,0,
2009-10-30, 00:49:04,VALID,1002.73,VALID,0,VALID,94.0183,VALID,0,VALID,23.2931,VALID,347,VALID,0,
2009-10-30, 00:50:04,VALID,1002.74,VALID,0,VALID,93.942,VALID,0,VALID,23.2948,VALID,347,VALID,0,
2009-10-30, 00:51:04,VALID,1002.67,VALID,0,VALID,93.9573,VALID,0,VALID,23.2754,VALID,347,VALID,0,
2009-10-30, 00:52:04,VALID,1002.64,VALID,0,VALID,93.9649,VALID,0,VALID,23.2559,VALID,347,VALID,0,
2009-10-30, 00:53:04,VALID,1002.59,VALID,0,VALID,93.9268,VALID,0,VALID,23.2152,VALID,347,VALID,0,
2009-10-30, 00:54:04,VALID,1002.57,VALID,0,VALID,93.9115,VALID,0,VALID,23.1957,VALID,347,VALID,0,
2009-10-30, 00:55:04,VALID,1002.57,VALID,0,VALID,93.9191,VALID,0,VALID,23.1763,VALID,347,VALID,0,
2009-10-30, 00:56:04,VALID,1002.54,VALID,0,VALID,93.9878,VALID,0,VALID,23.178,VALID,347,VALID,0,
2009-10-30, 00:57:04,VALID,1002.54,VALID,0,VALID,94.087,VALID,0,VALID,23.1975,VALID,347,VALID,0,
2009-10-30, 00:58:04,VALID,1002.54,VALID,0,VALID,94.1175,VALID,0,VALID,23.1568,VALID,347,VALID,0,
2009-10-30, 00:59:04,VALID,1002.56,VALID,0,VALID,94.1785,VALID,0,VALID,23.1586,VALID,347,VALID,0,
2009-10-30, 01:00:04,VALID,1002.53,VALID,0,VALID,94.2624,VALID,0,VALID,23.1568,VALID,347,VALID,0,
2009-10-30, 01:01:04,VALID,1002.54,VALID,0,VALID,94.3464,VALID,0,VALID,23.1957,VALID,347,VALID,0,
2009-10-30, 01:02:04,VALID,1002.52,VALID,0,VALID,94.3921,VALID,0,VALID,23.2364,VALID,347,VALID,0,
2009-10-30, 01:03:04,VALID,1002.51,VALID,0,VALID,94.4303,VALID,0,VALID,23.1957,VALID,347,VALID,0,
2009-10-30, 01:04:04,VALID,1002.47,VALID,0,VALID,94.4532,VALID,0,VALID,23.217,VALID,347,VALID,0,
2009-10-30, 01:05:04,VALID,1002.45,VALID,0,VALID,94.4532,VALID,0,VALID,23.217,VALID,347,VALID,0,
2009-10-30, 01:06:04,VALID,1002.46,VALID,0,VALID,94.4303,VALID,0,VALID,23.1763,VALID,347,VALID,0,
2009-10-30, 01:07:04,VALID,1002.46,VALID,0,VALID,94.3998,VALID,0,VALID,23.178,VALID,347,VALID,0,
2009-10-30, 01:08:04,VALID,1002.43,VALID,0,VALID,94.3769,VALID,0,VALID,23.1568,VALID,347,VALID,0,
2009-10-30, 01:09:04,VALID,1002.42,VALID,0,VALID,94.354,VALID,0,VALID,23.1568,VALID,347,VALID,0,
2009-10-30, 01:10:04,VALID,1002.41,VALID,0,VALID,94.3845,VALID,0,VALID,23.178,VALID,347,VALID,0,
2009-10-30, 01:11:04,VALID,1002.42,VALID,0,VALID,94.4074,VALID,0,VALID,23.1763,VALID,347,VALID,0,
2009-10-30, 01:12:04,VALID,1002.44,VALID,0,VALID,94.4532,VALID,0,VALID,23.1975,VALID,347,VALID,0,
2009-10-30, 01:13:04,VALID,1002.45,VALID,0,VALID,94.4455,VALID,0,VALID,23.1957,VALID,347,VALID,0,
2009-10-30, 01:14:04,VALID,1002.44,VALID,0,VALID,94.4532,VALID,0,VALID,23.1975,VALID,347,VALID,0,
2009-10-30, 01:15:04,VALID,1002.47,VALID,0,VALID,94.4684,VALID,0,VALID,23.1975,VALID,347,VALID,0,
2009-10-30, 01:16:04,VALID,1002.46,VALID,0,VALID,94.4761,VALID,0,VALID,23.1957,VALID,347,VALID,0,
2009-10-30, 01:17:04,VALID,1002.45,VALID,0,VALID,94.5142,VALID,0,VALID,23.2152,VALID,347,VALID,0,
2009-10-30, 01:18:04,VALID,1002.43,VALID,0,VALID,94.4989,VALID,0,VALID,23.1957,VALID,347,VALID,0,
2009-10-30, 01:19:04,VALID,1002.41,VALID,0,VALID,94.4761,VALID,0,VALID,23.1551,VALID,347,VALID,0,
2009-10-30, 01:20:04,VALID,1002.41,VALID,0,VALID,94.415,VALID,0,VALID,23.178,VALID,347,VALID,0,
2009-10-30, 01:21:04,VALID,1002.4,VALID,0,VALID,94.3769,VALID,0,VALID,23.1586,VALID,347,VALID,0,
2009-10-30, 01:22:04,VALID,1002.4,VALID,0,VALID,94.3387,VALID,0,VALID,23.1391,VALID,347,VALID,0,
2009-10-30, 01:23:04,VALID,1002.4,VALID,0,VALID,94.3082,VALID,0,VALID,23.1179,VALID,347,VALID,0,
2009-10-30, 01:24:04,VALID,1002.39,VALID,0,VALID,94.3235,VALID,0,VALID,23.1391,VALID,347,VALID,0,
2009-10-30, 01:25:04,VALID,1002.38,VALID,0,VALID,94.354,VALID,0,VALID,23.1179,VALID,347,VALID,0,
2009-10-30, 01:26:04,VALID,1002.38,VALID,0,VALID,94.3464,VALID,0,VALID,23.0984,VALID,347,VALID,0,
2009-10-30, 01:27:04,VALID,1002.36,VALID,0,VALID,94.3311,VALID,0,VALID,23.079,VALID,347,VALID,0,
2009-10-30, 01:28:04,VALID,1002.37,VALID,0,VALID,94.3311,VALID,0,VALID,23.0595,VALID,347,VALID,0,
2009-10-30, 01:29:04,VALID,1002.36,VALID,0,VALID,94.3235,VALID,0,VALID,23.0595,VALID,347,VALID,0,
2009-10-30, 01:30:04,VALID,1002.36,VALID,0,VALID,94.3464,VALID,0,VALID,23.0401,VALID,347,VALID,0,
2009-10-30, 01:31:04,VALID,1002.38,VALID,0,VALID,94.4379,VALID,0,VALID,23.0807,VALID,347,VALID,0,
2009-10-30, 01:32:04,VALID,1002.36,VALID,0,VALID,94.4913,VALID,0,VALID,23.079,VALID,347,VALID,0,
2009-10-30, 01:33:04,VALID,1002.34,VALID,0,VALID,94.5142,VALID,0,VALID,23.1002,VALID,347,VALID,0,
2009-10-30, 01:34:04,VALID,1002.33,VALID,0,VALID,94.5523,VALID,0,VALID,23.079,VALID,347,VALID,0,
2009-10-30, 01:35:04,VALID,1002.34,VALID,0,VALID,94.5218,VALID,0,VALID,23.0595,VALID,347,VALID,0,
2009-10-30, 01:36:04,VALID,1002.34,VALID,0,VALID,94.5447,VALID,0,VALID,23.0401,VALID,347,VALID,0,
2009-10-30, 01:37:04,VALID,1002.33,VALID,0,VALID,94.5523,VALID,0,VALID,23.0595,VALID,347,VALID,0,
2009-10-30, 01:38:04,VALID,1002.3,VALID,0,VALID,94.5905,VALID,0,VALID,23.0807,VALID,347,VALID,0,
2009-10-30, 01:39:04,VALID,1002.31,VALID,0,VALID,94.5905,VALID,0,VALID,23.0807,VALID,347,VALID,0,
2009-10-30, 01:40:04,VALID,1002.28,VALID,0,VALID,94.6057,VALID,0,VALID,23.0595,VALID,347,VALID,0,
2009-10-30, 01:41:04,VALID,1002.26,VALID,0,VALID,94.5829,VALID,0,VALID,23.0401,VALID,347,VALID,0,
2009-10-30, 01:42:04,VALID,1002.25,VALID,0,VALID,94.6057,VALID,0,VALID,23.0189,VALID,347,VALID,0,
2009-10-30, 01:43:04,VALID,1002.2,VALID,0,VALID,94.6286,VALID,0,VALID,23.0401,VALID,347,VALID,0,
2009-10-30, 01:44:04,VALID,1002.22,VALID,0,VALID,94.6515,VALID,0,VALID,23.0807,VALID,347,VALID,0,
2009-10-30, 01:45:04,VALID,1002.21,VALID,0,VALID,94.7049,VALID,0,VALID,23.0984,VALID,347,VALID,0,
2009-10-30, 01:46:04,VALID,1002.17,VALID,0,VALID,94.7354,VALID,0,VALID,23.1179,VALID,347,VALID,0,
2009-10-30, 01:47:04,VALID,1002.16,VALID,0,VALID,94.7431,VALID,0,VALID,23.1374,VALID,347,VALID,0,
2009-10-30, 01:48:04,VALID,1002.14,VALID,0,VALID,94.766,VALID,0,VALID,23.1374,VALID,347,VALID,0,
2009-10-30, 01:49:04,VALID,1002.12,VALID,0,VALID,94.7354,VALID,0,VALID,23.1391,VALID,347,VALID,0,
2009-10-30, 01:50:04,VALID,1002.07,VALID,0,VALID,94.6973,VALID,0,VALID,23.1197,VALID,347,VALID,0,
2009-10-30, 01:51:04,VALID,1002.07,VALID,0,VALID,94.6897,VALID,0,VALID,23.0984,VALID,347,VALID,0,
2009-10-30, 01:52:04,VALID,1002.05,VALID,0,VALID,94.6439,VALID,0,VALID,23.079,VALID,347,VALID,0,
2009-10-30, 01:53:04,VALID,1002.03,VALID,0,VALID,94.5905,VALID,0,VALID,23.0401,VALID,347,VALID,0,
2009-10-30, 01:54:04,VALID,1002.02,VALID,0,VALID,94.5066,VALID,0,VALID,22.9817,VALID,347,VALID,0,
2009-10-30, 01:55:04,VALID,1002,VALID,0,VALID,94.4532,VALID,0,VALID,22.9834,VALID,347,VALID,0,
2009-10-30, 01:56:04,VALID,1002.01,VALID,0,VALID,94.4379,VALID,0,VALID,22.9428,VALID,347,VALID,0,
2009-10-30, 01:57:04,VALID,1002.03,VALID,0,VALID,94.4532,VALID,0,VALID,22.9428,VALID,347,VALID,0,
2009-10-30, 01:58:04,VALID,1002.01,VALID,0,VALID,94.4761,VALID,0,VALID,22.964,VALID,347,VALID,0,
2009-10-30, 01:59:04,VALID,1002,VALID,0,VALID,94.4989,VALID,0,VALID,22.9233,VALID,347,VALID,0,
2009-10-30, 02:00:04,VALID,1002,VALID,0,VALID,94.5295,VALID,0,VALID,22.9445,VALID,347,VALID,0,
2009-10-30, 02:01:04,VALID,1002.01,VALID,0,VALID,94.5981,VALID,0,VALID,22.941,VALID,347,VALID,0,
2009-10-30, 02:02:04,VALID,1001.99,VALID,0,VALID,94.6591,VALID,0,VALID,22.9817,VALID,347,VALID,0,
2009-10-30, 02:03:04,VALID,1002,VALID,0,VALID,94.7049,VALID,0,VALID,23.0029,VALID,347,VALID,0,
2009-10-30, 02:04:04,VALID,1001.98,VALID,0,VALID,94.7049,VALID,0,VALID,22.9622,VALID,347,VALID,0,
2009-10-30, 02:05:04,VALID,1002,VALID,0,VALID,94.6973,VALID,0,VALID,22.9622,VALID,347,VALID,0,
2009-10-30, 02:06:04,VALID,1001.99,VALID,0,VALID,94.7202,VALID,0,VALID,22.9428,VALID,347,VALID,0,
2009-10-30, 02:07:04,VALID,1001.99,VALID,0,VALID,94.7583,VALID,0,VALID,22.9817,VALID,347,VALID,0,
2009-10-30, 02:08:04,VALID,1001.96,VALID,0,VALID,94.7507,VALID,0,VALID,22.9817,VALID,347,VALID,0,
2009-10-30, 02:09:04,VALID,1001.93,VALID,0,VALID,94.7431,VALID,0,VALID,23.0012,VALID,347,VALID,0,
2009-10-30, 02:10:04,VALID,1001.93,VALID,0,VALID,94.7583,VALID,0,VALID,23.0029,VALID,347,VALID,0,
2009-10-30, 02:11:04,VALID,1001.9,VALID,0,VALID,94.7965,VALID,0,VALID,22.9994,VALID,347,VALID,0,
2009-10-30, 02:12:04,VALID,1001.89,VALID,0,VALID,94.7888,VALID,0,VALID,23.0012,VALID,347,VALID,0,
2009-10-30, 02:13:04,VALID,1001.88,VALID,0,VALID,94.7583,VALID,0,VALID,23.0206,VALID,347,VALID,0,
2009-10-30, 02:14:04,VALID,1001.89,VALID,0,VALID,94.7583,VALID,0,VALID,22.9817,VALID,347,VALID,0,
2009-10-30, 02:15:04,VALID,1001.89,VALID,0,VALID,94.7278,VALID,0,VALID,22.9817,VALID,347,VALID,0,
2009-10-30, 02:16:04,VALID,1001.88,VALID,0,VALID,94.7202,VALID,0,VALID,23.0012,VALID,347,VALID,0,
2009-10-30, 02:17:04,VALID,1001.86,VALID,0,VALID,94.7202,VALID,0,VALID,23.0012,VALID,347,VALID,0,
2009-10-30, 02:18:04,VALID,1001.88,VALID,0,VALID,94.6897,VALID,0,VALID,22.9817,VALID,347,VALID,0,
2009-10-30, 02:19:04,VALID,1001.85,VALID,0,VALID,94.6515,VALID,0,VALID,22.9622,VALID,347,VALID,0,
2009-10-30, 02:20:04,VALID,1001.85,VALID,0,VALID,94.6286,VALID,0,VALID,22.9622,VALID,347,VALID,0,
2009-10-30, 02:21:04,VALID,1001.8,VALID,0,VALID,94.621,VALID,0,VALID,22.9834,VALID,347,VALID,0,
2009-10-30, 02:22:04,VALID,1001.78,VALID,0,VALID,94.6057,VALID,0,VALID,22.9834,VALID,347,VALID,0,
2009-10-30, 02:23:04,VALID,1001.77,VALID,0,VALID,94.5829,VALID,0,VALID,22.9428,VALID,347,VALID,0,
2009-10-30, 02:24:04,VALID,1001.73,VALID,0,VALID,94.5371,VALID,0,VALID,22.9233,VALID,347,VALID,0,
2009-10-30, 02:25:04,VALID,1001.72,VALID,0,VALID,94.5142,VALID,0,VALID,22.9039,VALID,347,VALID,0,
2009-10-30, 02:26:04,VALID,1001.73,VALID,0,VALID,94.5371,VALID,0,VALID,22.9039,VALID,347,VALID,0,
2009-10-30, 02:27:04,VALID,1001.71,VALID,0,VALID,94.5371,VALID,0,VALID,22.9039,VALID,347,VALID,0,
2009-10-30, 02:28:04,VALID,1001.71,VALID,0,VALID,94.5371,VALID,0,VALID,22.9039,VALID,347,VALID,0,
2009-10-30, 02:29:04,VALID,1001.69,VALID,0,VALID,94.5218,VALID,0,VALID,22.8844,VALID,347,VALID,0,
2009-10-30, 02:30:04,VALID,1001.7,VALID,0,VALID,94.5447,VALID,0,VALID,22.8632,VALID,347,VALID,0,
2009-10-30, 02:31:04,VALID,1001.68,VALID,0,VALID,94.5371,VALID,0,VALID,22.8649,VALID,347,VALID,0,
2009-10-30, 02:32:04,VALID,1001.68,VALID,0,VALID,94.5295,VALID,0,VALID,22.8844,VALID,358,VALID,0,
2009-10-30, 02:33:04,VALID,1001.67,VALID,0,VALID,94.5676,VALID,0,VALID,22.8649,VALID,358,VALID,0,
2009-10-30, 02:34:04,VALID,1001.69,VALID,0,VALID,94.5829,VALID,0,VALID,22.8649,VALID,358,VALID,0,
2009-10-30, 02:35:04,VALID,1001.68,VALID,0,VALID,94.5981,VALID,0,VALID,22.8455,VALID,358,VALID,0,
2009-10-30, 02:36:04,VALID,1001.63,VALID,0,VALID,94.6363,VALID,0,VALID,22.8649,VALID,358,VALID,0,
2009-10-30, 02:37:04,VALID,1001.64,VALID,0,VALID,94.6439,VALID,0,VALID,22.8649,VALID,358,VALID,0,
2009-10-30, 02:38:04,VALID,1001.66,VALID,0,VALID,94.6439,VALID,0,VALID,22.8438,VALID,358,VALID,0,
2009-10-30, 02:39:04,VALID,1001.64,VALID,0,VALID,94.6744,VALID,0.100563,VALID,22.8649,VALID,358,VALID,0,
2009-10-30, 02:40:04,VALID,1001.66,VALID,0,VALID,94.6973,VALID,0,VALID,22.8844,VALID,358,VALID,0,
2009-10-30, 02:41:04,VALID,1001.63,VALID,0,VALID,94.682,VALID,0,VALID,22.8667,VALID,358,VALID,0,
2009-10-30, 02:42:04,VALID,1001.66,VALID,0,VALID,94.682,VALID,0,VALID,22.8649,VALID,358,VALID,0,
2009-10-30, 02:43:04,VALID,1001.63,VALID,0,VALID,94.6973,VALID,0,VALID,22.8649,VALID,358,VALID,0,
2009-10-30, 02:44:04,VALID,1001.65,VALID,0,VALID,94.7049,VALID,0,VALID,22.8649,VALID,358,VALID,0,
2009-10-30, 02:45:04,VALID,1001.66,VALID,0,VALID,94.7354,VALID,0,VALID,22.8844,VALID,358,VALID,0,
2009-10-30, 02:46:04,VALID,1001.7,VALID,0,VALID,94.7583,VALID,0,VALID,22.8844,VALID,358,VALID,0,
2009-10-30, 02:47:04,VALID,1001.69,VALID,0,VALID,94.7583,VALID,0,VALID,22.9056,VALID,358,VALID,0,
2009-10-30, 02:48:04,VALID,1001.7,VALID,0,VALID,94.8346,VALID,0,VALID,22.8844,VALID,358,VALID,0,
2009-10-30, 02:49:04,VALID,1001.74,VALID,0,VALID,94.7965,VALID,0,VALID,22.8844,VALID,358,VALID,0,
2009-10-30, 02:50:04,VALID,1001.72,VALID,0,VALID,94.7888,VALID,0,VALID,22.8649,VALID,358,VALID,0,
2009-10-30, 02:51:04,VALID,1001.76,VALID,0,VALID,94.8041,VALID,0,VALID,22.8649,VALID,358,VALID,0,
2009-10-30, 02:52:04,VALID,1001.76,VALID,0,VALID,94.7812,VALID,0,VALID,22.8649,VALID,358,VALID,0,
2009-10-30, 02:53:04,VALID,1001.76,VALID,0,VALID,94.8117,VALID,0,VALID,22.8649,VALID,358,VALID,0,
2009-10-30, 02:54:04,VALID,1001.78,VALID,0,VALID,94.8194,VALID,0,VALID,22.8649,VALID,358,VALID,0,
2009-10-30, 02:55:04,VALID,1001.76,VALID,0,VALID,94.8117,VALID,0,VALID,22.8455,VALID,358,VALID,0,
2009-10-30, 02:56:04,VALID,1001.75,VALID,0,VALID,94.8117,VALID,0,VALID,22.8455,VALID,358,VALID,0,
2009-10-30, 02:57:04,VALID,1001.74,VALID,0,VALID,94.8041,VALID,0,VALID,22.8455,VALID,358,VALID,0,
2009-10-30, 02:58:04,VALID,1001.73,VALID,0,VALID,94.7965,VALID,0,VALID,22.826,VALID,358,VALID,0,
2009-10-30, 02:59:04,VALID,1001.75,VALID,0,VALID,94.8117,VALID,0,VALID,22.8472,VALID,358,VALID,0,
2009-10-30, 03:00:04,VALID,1001.75,VALID,0,VALID,94.8575,VALID,0,VALID,22.8649,VALID,358,VALID,0,
2009-10-30, 03:01:04,VALID,1001.76,VALID,0,VALID,94.8956,VALID,0,VALID,22.8844,VALID,358,VALID,0,
2009-10-30, 03:02:04,VALID,1001.75,VALID,0,VALID,94.9338,VALID,0,VALID,22.9039,VALID,358,VALID,0,
2009-10-30, 03:03:04,VALID,1001.71,VALID,0,VALID,94.9567,VALID,0,VALID,22.9233,VALID,358,VALID,0,
2009-10-30, 03:04:04,VALID,1001.72,VALID,0,VALID,94.9719,VALID,0,VALID,22.9233,VALID,358,VALID,0,
2009-10-30, 03:05:04,VALID,1001.71,VALID,0,VALID,94.9719,VALID,0,VALID,22.9428,VALID,358,VALID,0,
2009-10-30, 03:06:04,VALID,1001.72,VALID,0,VALID,94.9643,VALID,0,VALID,22.9428,VALID,358,VALID,0,
2009-10-30, 03:07:04,VALID,1001.71,VALID,0,VALID,94.9643,VALID,0,VALID,22.9445,VALID,358,VALID,0,
2009-10-30, 03:08:04,VALID,1001.7,VALID,0,VALID,94.9719,VALID,0,VALID,22.9622,VALID,358,VALID,0,
2009-10-30, 03:09:04,VALID,1001.72,VALID,0,VALID,95.0024,VALID,0,VALID,22.9817,VALID,358,VALID,0,
2009-10-30, 03:10:04,VALID,1001.71,VALID,0,VALID,94.9948,VALID,0,VALID,22.9817,VALID,358,VALID,0,
2009-10-30, 03:11:04,VALID,1001.74,VALID,0,VALID,94.9948,VALID,0,VALID,22.964,VALID,358,VALID,0,
2009-10-30, 03:12:04,VALID,1001.69,VALID,0,VALID,94.9719,VALID,0,VALID,22.9622,VALID,358,VALID,0,
2009-10-30, 03:13:04,VALID,1001.7,VALID,0,VALID,94.9948,VALID,0,VALID,23.0029,VALID,358,VALID,0,
2009-10-30, 03:14:04,VALID,1001.73,VALID,0,VALID,95.0101,VALID,0,VALID,23.0012,VALID,358,VALID,0,
2009-10-30, 03:15:04,VALID,1001.67,VALID,0,VALID,95.0406,VALID,0,VALID,23.0012,VALID,358,VALID,0,
2009-10-30, 03:16:04,VALID,1001.65,VALID,0,VALID,95.0024,VALID,0,VALID,23.0206,VALID,358,VALID,0,
2009-10-30, 03:17:04,VALID,1001.63,VALID,0,VALID,94.9872,VALID,0,VALID,23.0012,VALID,358,VALID,0,
2009-10-30, 03:18:04,VALID,1001.63,VALID,0,VALID,94.9643,VALID,0,VALID,23.0012,VALID,358,VALID,0,
2009-10-30, 03:19:04,VALID,1001.6,VALID,0,VALID,94.9033,VALID,0,VALID,22.9605,VALID,358,VALID,0,
2009-10-30, 03:20:04,VALID,1001.61,VALID,0,VALID,94.9033,VALID,0,VALID,23.0029,VALID,358,VALID,0,
2009-10-30, 03:21:04,VALID,1001.64,VALID,0,VALID,94.8804,VALID,0,VALID,22.9428,VALID,358,VALID,0,
2009-10-30, 03:22:04,VALID,1001.64,VALID,0,VALID,94.8194,VALID,0,VALID,22.9233,VALID,358,VALID,0,
2009-10-30, 03:23:04,VALID,1001.66,VALID,0,VALID,94.766,VALID,0,VALID,22.9056,VALID,358,VALID,0,
2009-10-30, 03:24:04,VALID,1001.7,VALID,0,VALID,94.7278,VALID,0,VALID,22.8649,VALID,358,VALID,0,
2009-10-30, 03:25:04,VALID,1001.7,VALID,0,VALID,94.7202,VALID,0,VALID,22.8649,VALID,358,VALID,0,
2009-10-30, 03:26:04,VALID,1001.72,VALID,0,VALID,94.7125,VALID,0,VALID,22.8455,VALID,358,VALID,0,
2009-10-30, 03:27:04,VALID,1001.71,VALID,0,VALID,94.6897,VALID,0,VALID,22.8455,VALID,358,VALID,0,
2009-10-30, 03:28:04,VALID,1001.72,VALID,0,VALID,94.6897,VALID,0.100563,VALID,22.826,VALID,358,VALID,0,
2009-10-30, 03:29:04,VALID,1001.74,VALID,0,VALID,94.6973,VALID,0,VALID,22.826,VALID,358,VALID,0,
2009-10-30, 03:30:04,VALID,1001.74,VALID,0,VALID,94.7202,VALID,0,VALID,22.826,VALID,358,VALID,0,
2009-10-30, 03:31:04,VALID,1001.72,VALID,0,VALID,94.766,VALID,0,VALID,22.8455,VALID,358,VALID,0,
2009-10-30, 03:32:04,VALID,1001.71,VALID,0,VALID,94.7812,VALID,0,VALID,22.8649,VALID,358,VALID,0,
2009-10-30, 03:33:04,VALID,1001.72,VALID,0,VALID,94.8117,VALID,0,VALID,22.8861,VALID,358,VALID,0,
2009-10-30, 03:34:04,VALID,1001.7,VALID,0,VALID,94.8194,VALID,0,VALID,22.8844,VALID,358,VALID,0,
2009-10-30, 03:35:04,VALID,1001.72,VALID,0,VALID,94.8651,VALID,0,VALID,22.9039,VALID,358,VALID,0,
2009-10-30, 03:36:04,VALID,1001.77,VALID,0,VALID,94.8499,VALID,0,VALID,22.9233,VALID,358,VALID,0,
2009-10-30, 03:37:04,VALID,1001.77,VALID,0,VALID,94.8194,VALID,0,VALID,22.9039,VALID,358,VALID,0,
2009-10-30, 03:38:04,VALID,1001.78,VALID,0,VALID,94.7812,VALID,0,VALID,22.9233,VALID,358,VALID,0,
2009-10-30, 03:39:04,VALID,1001.83,VALID,0,VALID,94.7278,VALID,0,VALID,22.9233,VALID,358,VALID,0,
2009-10-30, 03:40:04,VALID,1001.84,VALID,0,VALID,94.7278,VALID,0,VALID,22.9039,VALID,358,VALID,0,
2009-10-30, 03:41:04,VALID,1001.84,VALID,0,VALID,94.682,VALID,0,VALID,22.8844,VALID,358,VALID,0,
2009-10-30, 03:42:04,VALID,1001.85,VALID,0,VALID,94.6286,VALID,0,VALID,22.8861,VALID,358,VALID,0,
2009-10-30, 03:43:04,VALID,1001.85,VALID,0,VALID,94.5905,VALID,0.100563,VALID,22.8649,VALID,358,VALID,0,
2009-10-30, 03:44:04,VALID,1001.88,VALID,0,VALID,94.6439,VALID,0,VALID,22.8844,VALID,358,VALID,0,
2009-10-30, 03:45:04,VALID,1001.87,VALID,0,VALID,94.6439,VALID,0.100563,VALID,22.8844,VALID,358,VALID,0,
2009-10-30, 03:46:04,VALID,1001.89,VALID,0,VALID,94.5752,VALID,0,VALID,22.8455,VALID,358,VALID,0,
2009-10-30, 03:47:04,VALID,1001.95,VALID,0,VALID,94.5752,VALID,0,VALID,22.8649,VALID,358,VALID,0,
2009-10-30, 03:48:04,VALID,1001.96,VALID,0,VALID,94.5676,VALID,0,VALID,22.8243,VALID,358,VALID,0,
2009-10-30, 03:49:04,VALID,1001.98,VALID,0,VALID,94.5905,VALID,0,VALID,22.8649,VALID,358,VALID,0,
2009-10-30, 03:50:04,VALID,1002,VALID,0,VALID,94.6591,VALID,0,VALID,22.8844,VALID,358,VALID,0,
2009-10-30, 03:51:04,VALID,1002.04,VALID,0,VALID,94.6897,VALID,0,VALID,22.9233,VALID,358,VALID,0,
2009-10-30, 03:52:04,VALID,1002.05,VALID,0,VALID,94.6973,VALID,0,VALID,22.9039,VALID,358,VALID,0,
2009-10-30, 03:53:04,VALID,1002.06,VALID,0,VALID,94.6973,VALID,0.100563,VALID,22.9039,VALID,358,VALID,0,
2009-10-30, 03:54:04,VALID,1002.06,VALID,0,VALID,94.7125,VALID,0.100563,VALID,22.8827,VALID,358,VALID,0,
2009-10-30, 03:55:04,VALID,1002.1,VALID,0,VALID,94.7049,VALID,0,VALID,22.9039,VALID,358,VALID,0,
2009-10-30, 03:56:04,VALID,1002.09,VALID,0,VALID,94.6515,VALID,0,VALID,22.8844,VALID,358,VALID,0,
2009-10-30, 03:57:04,VALID,1002.13,VALID,0,VALID,94.621,VALID,0,VALID,22.8844,VALID,358,VALID,0,
2009-10-30, 03:58:04,VALID,1002.15,VALID,0,VALID,94.6363,VALID,0,VALID,22.9039,VALID,358,VALID,0,
2009-10-30, 03:59:04,VALID,1002.17,VALID,0,VALID,94.6286,VALID,0,VALID,22.8649,VALID,358,VALID,0,